Location: Unspecified
(0.0000°N, 0.0000°E)
Time: 16:23:26
(UTC+00:00)

Vanguard 3 - All Passes

Search period start: 21 January 2018 00:00
Search period end: 31 January 2018 00:00
Orbit: 508 x 3264 km, 33.4° (Epoch: 20 January)

Date Brightness Start Highest point End Pass type
(mag) Time Alt. Az. Time Alt. Az. Time Alt. Az.
21 Jan - 01:36:19 10° NW 01:45:38 17° N 01:56:31 10° NNE visible
21 Jan - 03:55:33 10° NNW 04:08:51 21° NNE 04:21:26 10° ENE visible
21 Jan - 06:11:45 10° NW 06:29:27 41° NNE 06:41:56 10° E daylight
21 Jan - 08:28:54 10° NW 08:45:55 85° SW 08:55:30 10° SE daylight
21 Jan - 10:50:27 10° W 10:58:48 22° SW 11:04:32 10° S daylight
21 Jan - 19:50:20 10° SW 19:55:40 61° SE 20:05:02 10° ENE visible
21 Jan - 22:02:00 10° W 22:09:16 37° NNW 22:21:22 10° NE visible
22 Jan - 00:18:55 10° NW 00:27:12 19° N 00:37:53 10° NNE visible
22 Jan - 02:38:49 10° NNW 02:49:30 17° N 03:00:56 10° NE visible
22 Jan - 04:55:16 10° NNW 05:11:41 31° NNE 05:25:18 10° E visible
22 Jan - 07:11:24 10° NW 07:30:06 67° NNE 07:41:43 10° ESE daylight
22 Jan - 09:30:34 10° WNW 09:44:35 45° SW 09:52:50 10° SSE daylight
22 Jan - 18:38:30 10° SSW 18:42:20 24° SE 18:47:44 10° E visible
22 Jan - 20:48:08 10° WSW 20:54:09 56° NNW 21:04:58 10° NE visible
22 Jan - 23:02:34 10° WNW 23:09:57 22° NNW 23:20:30 10° NNE night (unlit)
23 Jan - 01:21:56 10° NNW 01:30:16 16° N 01:39:58 10° NNE visible
23 Jan - 03:39:08 10° NNW 03:53:05 23° NNE 04:06:36 10° ENE visible
23 Jan - 05:54:34 10° NW 06:13:16 48° NNE 06:26:46 10° E daylight
23 Jan - 08:11:55 10° WNW 08:29:41 75° SW 08:40:03 10° SE daylight
23 Jan - 10:34:42 10° W 10:42:57 20° SW 10:48:49 10° S daylight
23 Jan - 19:35:06 10° SW 19:40:04 77° SE 19:48:42 10° ENE visible
23 Jan - 21:47:24 10° W 21:53:51 29° NNW 22:04:00 10° NNE visible
24 Jan - 00:05:01 10° NW 00:11:52 15° N 00:20:24 10° NNE night (unlit)
24 Jan - 02:23:16 10° NNW 02:33:59 18° NNE 02:45:40 10° NE visible
24 Jan - 04:38:20 10° NNW 04:55:33 35° NNE 05:10:14 10° E visible
24 Jan - 06:54:15 10° NW 07:13:46 76° NE 07:26:18 10° ESE daylight
24 Jan - 09:14:04 10° WNW 09:28:25 40° SW 09:37:14 10° SSE daylight
24 Jan - 18:22:56 10° SSW 18:26:45 29° SE 18:32:10 10° E daylight
24 Jan - 20:33:16 10° W 20:38:44 42° NNW 20:48:03 10° NE visible
24 Jan - 22:48:35 10° NW 22:54:39 17° NNW 23:02:47 10° NNE night (unlit)
25 Jan - 01:07:29 10° NNW 01:14:57 14° N 01:23:36 10° NE visible
25 Jan - 03:22:41 10° NNW 03:37:10 26° NNE 03:51:36 10° ENE visible
25 Jan - 05:37:28 10° NW 05:56:53 55° NNE 06:11:24 10° ESE visible
25 Jan - 07:55:01 10° WNW 08:13:18 66° SW 08:24:28 10° SE daylight
25 Jan - 10:19:02 10° WSW 10:27:06 18° SW 10:33:03 10° S daylight
25 Jan - 19:19:58 10° WSW 19:24:35 80° NW 19:32:20 10° NE visible
25 Jan - 21:33:04 10° WNW 21:38:34 22° NNW 21:46:34 10° NNE visible
25 Jan - 23:51:29 10° NNW 23:56:38 13° N 00:02:45 10° NNE night (unlit)
26 Jan - 02:07:33 10° NNW 02:18:23 19° NNE 02:30:28 10° NE visible
26 Jan - 04:21:29 10° NW 04:39:15 40° NNE 04:54:58 10° E visible
26 Jan - 06:37:13 10° NW 06:57:16 85° NE 07:10:44 10° SE daylight
26 Jan - 08:57:40 10° W 09:12:12 36° SW 09:21:34 10° SSE daylight
26 Jan - 18:07:27 10° SSW 18:11:13 38° SE 18:16:32 10° ENE daylight
26 Jan - 20:18:34 10° W 20:23:26 31° NNW 20:31:06 10° NNE visible
26 Jan - 22:35:08 10° NW 22:39:27 13° N 22:44:44 10° NNE night (unlit)
27 Jan - 00:52:54 10° NNW 00:59:38 14° N 01:07:26 10° NE visible
27 Jan - 03:06:15 10° NNW 03:21:06 28° NNE 03:36:25 10° ENE visible
27 Jan - 05:20:30 10° NW 05:40:20 62° NE 05:55:51 10° ESE visible
27 Jan - 07:38:14 10° WNW 07:56:48 59° SW 08:08:46 10° SE daylight
27 Jan - 10:03:29 10° WSW 10:11:17 17° SW 10:17:13 10° S daylight
27 Jan - 16:56:34 10° SSE 16:57:58 12° SE 16:59:29 10° ESE daylight
27 Jan - 19:04:57 10° WSW 19:09:12 57° NNW 19:15:59 10° NE visible
27 Jan - 21:19:10 10° NW 21:23:22 16° NNW 21:28:53 10° NNE visible
27 Jan - 23:38:43 10° N 23:41:29 11° N 23:44:31 10° NNE night (unlit)
28 Jan - 01:51:42 10° NNW 02:02:41 20° NNE 02:15:15 10° ENE visible
28 Jan - 04:04:45 10° NW 04:22:46 45° NNE 04:39:29 10° E visible
28 Jan - 06:20:19 10° NW 06:40:36 86° SW 06:55:00 10° SE daylight
28 Jan - 08:41:23 10° W 08:55:58 32° SW 09:05:48 10° SSE daylight
28 Jan - 17:52:03 10° SW 17:55:46 53° SE 18:00:52 10° ENE daylight
28 Jan - 20:04:09 10° WNW 20:08:14 22° NNW 20:14:04 10° NNE visible
29 Jan - 00:38:03 10° N 00:44:18 13° NNE 00:51:32 10° NE visible
29 Jan - 02:49:51 10° NNW 03:04:52 31° NNE 03:21:03 10° E visible
29 Jan - 05:03:41 10° NW 05:23:36 70° NE 05:40:08 10° ESE visible
29 Jan - 07:21:35 10° WNW 07:40:15 53° SW 07:52:57 10° SE daylight
29 Jan - 09:48:03 10° WSW 09:55:30 15° SW 10:01:23 10° S daylight
29 Jan - 16:40:09 10° S 16:42:33 16° SE 16:45:07 10° ESE daylight
29 Jan - 18:50:03 10° W 18:53:55 38° NNW 18:59:36 10° NE visible
29 Jan - 21:06:27 10° NNW 21:08:16 11° NNW 21:10:17 10° N visible
30 Jan - 01:35:46 10° NNW 01:46:52 21° NNE 01:59:57 10° ENE visible
30 Jan - 03:48:07 10° NW 04:06:08 50° NE 04:23:47 10° ESE visible
30 Jan - 06:03:34 10° WNW 06:23:50 78° SW 06:39:08 10° SE daylight
30 Jan - 08:25:15 10° W 08:39:45 30° SW 08:49:58 10° SSE daylight
30 Jan - 17:36:43 10° SW 17:40:24 80° SE 17:45:09 10° ENE daylight
30 Jan - 19:50:10 10° NW 19:53:06 15° NNW 19:56:45 10° NNE visible
